SWA5796 KSJC-KSAN

Flight info

Callsign SWA5796
Flight time N/A
Altitude 37000
Route SPTNS1 VLREE EBAYE AVE FIM J1 LAX COMIX2
Aircraft B737/M-SADE2E3GIJ4RWZ/LB1D1

Departure

Time 2026-04-30 22:16
Airport Norman Y. Mineta San Jose International Airport (KSJC)

Arrival

Time N/A
Airport San Diego International Airport (KSAN)
Time Latitude Longitude Altitude Speed Heading
2026-04-30 21:51 37.36496 -121.92531 60 ft 0 kts 49°
2026-04-30 22:02 37.36493 -121.92535 53 ft 4 kts 48°
2026-04-30 22:02 37.36474 -121.92560 52 ft 4 kts 45°
2026-04-30 22:03 37.36456 -121.92584 61 ft 4 kts 56°
2026-04-30 22:03 37.36448 -121.92607 61 ft 3 kts 129°
2026-04-30 22:03 37.36450 -121.92610 61 ft 1 kts 139°
2026-04-30 22:10 37.36445 -121.92605 52 ft 2 kts 139°
2026-04-30 22:10 37.36421 -121.92579 56 ft 7 kts 139°
2026-04-30 22:11 37.36306 -121.92452 53 ft 15 kts 139°
2026-04-30 22:11 37.36218 -121.92356 56 ft 18 kts 139°
2026-04-30 22:11 37.36117 -121.92245 60 ft 19 kts 139°
2026-04-30 22:12 37.36017 -121.92137 56 ft 19 kts 139°
2026-04-30 22:12 37.35921 -121.92031 55 ft 18 kts 139°
2026-04-30 22:12 37.35829 -121.91929 61 ft 17 kts 139°
2026-04-30 22:12 37.35739 -121.91831 58 ft 17 kts 139°
2026-04-30 22:13 37.35653 -121.91736 56 ft 16 kts 139°
2026-04-30 22:13 37.35570 -121.91646 57 ft 16 kts 139°
2026-04-30 22:13 37.35490 -121.91558 61 ft 15 kts 139°
2026-04-30 22:13 37.35415 -121.91476 52 ft 14 kts 139°
2026-04-30 22:14 37.35331 -121.91425 55 ft 14 kts 198°
2026-04-30 22:14 37.35267 -121.91506 59 ft 13 kts 230°
2026-04-30 22:14 37.35208 -121.91591 62 ft 13 kts 228°
2026-04-30 22:14 37.35154 -121.91668 55 ft 9 kts 229°
2026-04-30 22:15 37.35130 -121.91733 56 ft 8 kts 292°
2026-04-30 22:15 37.35162 -121.91774 61 ft 9 kts 319°
2026-04-30 22:15 37.35395 -121.92030 58 ft 84 kts 319°
2026-04-30 22:15 37.36008 -121.92701 117 ft 142 kts 319°
2026-04-30 22:16 37.36802 -121.93580 745 ft 153 kts 319°
2026-04-30 22:16 37.37611 -121.94453 1475 ft 159 kts 317°
2026-04-30 22:17 37.41032 -121.97667 2389 ft 252 kts 348°
2026-04-30 22:17 37.42780 -121.97567 3172 ft 261 kts 18°
2026-04-30 22:17 37.45181 -121.94304 4661 ft 268 kts 77°
2026-04-30 22:18 37.45093 -121.92005 4971 ft 270 kts 109°
2026-04-30 22:18 37.42562 -121.88480 5002 ft 275 kts 142°
2026-04-30 22:19 37.39530 -121.85556 4982 ft 274 kts 141°
2026-04-30 22:19 37.38054 -121.84088 4991 ft 273 kts 141°
2026-04-30 22:19 37.35100 -121.81085 4990 ft 272 kts 140°
2026-04-30 22:20 37.33639 -121.79586 4978 ft 271 kts 140°
2026-04-30 22:20 37.30755 -121.76470 5485 ft 278 kts 137°
2026-04-30 22:20 37.29327 -121.74837 6780 ft 275 kts 137°
2026-04-30 22:21 37.27906 -121.73208 7931 ft 278 kts 137°
2026-04-30 22:21 37.26463 -121.71560 9025 ft 283 kts 137°
2026-04-30 22:21 37.24996 -121.69889 10122 ft 286 kts 136°
2026-04-30 22:21 37.23490 -121.68175 10720 ft 309 kts 137°
2026-04-30 22:22 37.21834 -121.66296 11230 ft 329 kts 137°
2026-04-30 22:22 37.20099 -121.64331 12067 ft 339 kts 137°
2026-04-30 22:22 37.18342 -121.62341 13076 ft 344 kts 137°
2026-04-30 22:22 37.16544 -121.60309 13934 ft 352 kts 137°
2026-04-30 22:23 37.14702 -121.58229 14758 ft 359 kts 137°
2026-04-30 22:23 37.12834 -121.56120 15643 ft 364 kts 137°
2026-04-30 22:23 37.10942 -121.53984 16521 ft 369 kts 137°
2026-04-30 22:23 37.09016 -121.51812 17382 ft 375 kts 137°
2026-04-30 22:24 37.07090 -121.49643 18208 ft 380 kts 136°
2026-04-30 22:24 37.05091 -121.47422 18973 ft 386 kts 138°
2026-04-30 22:24 37.03040 -121.45217 19705 ft 392 kts 139°
2026-04-30 22:24 37.00946 -121.42994 20449 ft 397 kts 139°
2026-04-30 22:25 36.98816 -121.40741 21194 ft 403 kts 139°
2026-04-30 22:25 36.96665 -121.38463 21930 ft 408 kts 139°
2026-04-30 22:25 36.94489 -121.36155 22652 ft 413 kts 139°
2026-04-30 22:25 36.92306 -121.33837 23356 ft 419 kts 139°
2026-04-30 22:26 36.87811 -121.29060 24593 ft 429 kts 140°
2026-04-30 22:26 36.85532 -121.26639 25209 ft 432 kts 140°
2026-04-30 22:26 36.83227 -121.24194 25818 ft 437 kts 140°
2026-04-30 22:27 36.80898 -121.21724 26401 ft 441 kts 140°
2026-04-30 22:27 36.78536 -121.19221 26983 ft 445 kts 140°
2026-04-30 22:27 36.73762 -121.14169 28072 ft 454 kts 140°
2026-04-30 22:28 36.68928 -121.09062 29146 ft 462 kts 141°
2026-04-30 22:28 36.66459 -121.06456 29642 ft 467 kts 141°
2026-04-30 22:29 36.58918 -120.98538 30873 ft 479 kts 142°
2026-04-30 22:29 36.56326 -120.95890 31213 ft 483 kts 142°
2026-04-30 22:30 36.45855 -120.85306 33134 ft 485 kts 142°
2026-04-30 22:31 36.38039 -120.77394 34472 ft 485 kts 142°
2026-04-30 22:32 36.30243 -120.69513 35769 ft 480 kts 142°
2026-04-30 22:32 36.25093 -120.64322 36543 ft 477 kts 142°
2026-04-30 22:33 36.17319 -120.56504 36982 ft 483 kts 142°
2026-04-30 22:33 36.12137 -120.51305 36965 ft 475 kts 143°
2026-04-30 22:35 35.99315 -120.38473 36990 ft 476 kts 142°
2026-04-30 22:36 35.86442 -120.25591 36968 ft 479 kts 139°
2026-04-30 22:37 35.77183 -120.13779 36948 ft 478 kts 134°
2026-04-30 22:38 35.67953 -120.02018 36961 ft 475 kts 135°
2026-04-30 22:39 35.60518 -119.94069 36958 ft 471 kts 146°
2026-04-30 22:40 35.44389 -119.80341 36960 ft 471 kts 146°
2026-04-30 22:41 35.30959 -119.68766 36943 ft 472 kts 146°
2026-04-30 22:43 35.14818 -119.54941 36947 ft 473 kts 146°
2026-04-30 22:44 35.04024 -119.45728 36939 ft 473 kts 146°
2026-04-30 22:45 34.87865 -119.31993 36943 ft 472 kts 146°
2026-04-30 22:47 34.71682 -119.18304 36946 ft 472 kts 146°
2026-04-30 22:48 34.60950 -119.09263 36952 ft 470 kts 146°
2026-04-30 22:49 34.44779 -118.95694 36983 ft 473 kts 146°
2026-04-30 22:51 34.29121 -118.81296 36919 ft 471 kts 137°
2026-04-30 22:52 34.21814 -118.73347 36921 ft 471 kts 138°
2026-04-30 22:53 34.12003 -118.62933 36922 ft 471 kts 138°
2026-04-30 22:53 34.07879 -118.58575 36400 ft 474 kts 138°
2026-04-30 22:53 34.05408 -118.55965 35865 ft 473 kts 138°
2026-04-30 22:54 34.00445 -118.50727 34654 ft 473 kts 138°
2026-04-30 22:55 33.93095 -118.42954 33163 ft 463 kts 135°
2026-04-30 22:55 33.88732 -118.37419 32227 ft 454 kts 130°
2026-04-30 22:56 33.84515 -118.31838 31322 ft 447 kts 130°
2026-04-30 22:56 33.78236 -118.23689 29984 ft 438 kts 130°
2026-04-30 22:57 33.74143 -118.18355 28953 ft 430 kts 129°
2026-04-30 22:57 33.70157 -118.13106 28011 ft 421 kts 129°
2026-04-30 22:58 33.66247 -118.07966 27093 ft 413 kts 129°
2026-04-30 22:59 33.60525 -118.00470 25749 ft 402 kts 129°
2026-04-30 22:59 33.54917 -117.93152 24413 ft 393 kts 130°